| time (UTC) | temp F | wind direction | speed MPH | gust MPH | rain 1hr in | rain 24hr in | rain mn in | humidity % | barometer mb |
| 20260506062045 | 51 | 0 | 0.0 | 1.0 | 0.03 | 0.19 | 0.10 | 96 | 1007.2 |
| 20260506061553 | 51 | 0 | 0.0 | 1.0 | 0.03 | 0.19 | 0.10 | 95 | 1007.4 |
| 20260506061045 | 50 | 132 | 0.0 | 1.0 | 0.04 | 0.19 | 0.10 | 95 | 1007.4 |
| 20260506060543 | 51 | 132 | 0.0 | 1.0 | 0.06 | 0.19 | 0.10 | 95 | 1007.4 |
| 20260506051042 | 53 | 178 | 0.0 | 3.0 | 0.06 | 0.15 | 0.06 | 91 | 1007.7 |
| 20260506050542 | 53 | 178 | 1.0 | 3.0 | 0.04 | 0.13 | 0.04 | 92 | 1008.5 |
| 20260506045041 | 54 | 0 | 0.0 | 0.0 | 0.02 | 0.10 | 0.01 | 92 | 1008.0 |
| 20260506044549 | 54 | 0 | 0.0 | 1.0 | 0.02 | 0.10 | 0.01 | 91 | 1007.8 |
| 20260506044045 | 55 | 0 | 0.0 | 3.0 | 0.01 | 0.09 | 0.00 | 90 | 1007.5 |
| 20260506043547 | 55 | 0 | 0.0 | 3.0 | 0.01 | 0.09 | 0.00 | 87 | 1007.6 |
| 20260506043047 | 55 | 178 | 1.0 | 3.0 | 0.01 | 0.09 | 0.00 | 87 | 1007.8 |
| 20260506042543 | 55 | 178 | 1.0 | 3.0 | 0.01 | 0.09 | 0.00 | 87 | 1007.8 |
| 20260506042042 | 55 | 176 | 0.0 | 1.0 | 0.01 | 0.09 | 0.00 | 88 | 1007.6 |
| 20260506041548 | 56 | 0 | 0.0 | 2.0 | 0.01 | 0.09 | 0.00 | 88 | 1007.6 |
| 20260506041042 | 56 | 0 | 0.0 | 3.0 | 0.01 | 0.09 | 0.00 | 87 | 1007.6 |
| 20260506040547 | 56 | 0 | 1.0 | 4.0 | 0.01 | 0.09 | 0.00 | 87 | 1007.4 |
| 20260506040053 | 56 | 178 | 1.0 | 4.0 | 0.01 | 0.09 | 0.00 | 87 | 1007.3 |
| 20260506035546 | 56 | 95 | 1.0 | 4.0 | 0.01 | 0.09 | 0.09 | 88 | 1007.4 |
| 20260506035044 | 56 | 0 | 0.0 | 2.0 | 0.00 | 0.08 | 0.08 | 87 | 1007.4 |
| 20260506034557 | 56 | 0 | 0.0 | 2.0 | 0.00 | 0.08 | 0.08 | 86 | 1007.2 |
| 20260506034043 | 56 | 178 | 0.0 | 2.0 | 0.00 | 0.08 | 0.08 | 87 | 1007.2 |
| 20260506033541 | 56 | 178 | 0.0 | 2.0 | 0.00 | 0.08 | 0.08 | 86 | 1007.2 |
| 20260506033049 | 56 | 114 | 0.0 | 1.0 | 0.00 | 0.08 | 0.08 | 86 | 1007.0 |
| 20260506032541 | 56 | 114 | 0.0 | 1.0 | 0.00 | 0.08 | 0.08 | 86 | 1006.9 |
| 20260506032041 | 56 | 0 | 0.0 | 1.0 | 0.00 | 0.08 | 0.08 | 87 | 1007.0 |
| 20260506031550 | 56 | 114 | 0.0 | 1.0 | 0.00 | 0.08 | 0.08 | 87 | 1006.8 |
| 20260506031047 | 56 | 114 | 0.0 | 1.0 | 0.00 | 0.08 | 0.08 | 86 | 1006.7 |
| 20260506030543 | 56 | 114 | 0.0 | 1.0 | 0.00 | 0.08 | 0.08 | 86 | 1006.9 |
| 20260506030054 | 56 | 114 | 0.0 | 2.0 | 0.00 | 0.08 | 0.08 | 84 | 1006.7 |
| 20260506025541 | 56 | 114 | 1.0 | 2.0 | 0.00 | 0.08 | 0.08 | 83 | 1006.7 |
| 20260506025043 | 56 | 40 | 0.0 | 2.0 | 0.00 | 0.08 | 0.08 | 83 | 1006.7 |
| 20260506024600 | 56 | 0 | 0.0 | 2.0 | 0.00 | 0.08 | 0.08 | 82 | 1006.6 |
| 20260506024045 | 56 | 97 | 0.0 | 2.0 | 0.00 | 0.08 | 0.08 | 83 | 1006.7 |
| 20260506023545 | 56 | 98 | 0.0 | 1.0 | 0.00 | 0.08 | 0.08 | 82 | 1006.7 |
| 20260506023051 | 56 | 98 | 0.0 | 2.0 | 0.00 | 0.08 | 0.08 | 82 | 1006.8 |
| 20260506022547 | 56 | 98 | 0.0 | 2.0 | 0.00 | 0.08 | 0.08 | 83 | 1006.8 |
| 20260506022047 | 56 | 0 | 0.0 | 2.0 | 0.00 | 0.08 | 0.08 | 83 | 1006.9 |
| 20260506021553 | 56 | 0 | 0.0 | 2.0 | 0.00 | 0.08 | 0.08 | 83 | 1006.8 |
| 20260506021046 | 56 | 0 | 0.0 | 2.0 | 0.00 | 0.08 | 0.08 | 84 | 1007.0 |
| 20260506020547 | 55 | 0 | 0.0 | 0.0 | 0.00 | 0.08 | 0.08 | 85 | 1006.9 |
| 20260506020105 | 55 | 153 | 0.0 | 1.0 | 0.00 | 0.08 | 0.08 | 85 | 1006.7 |
| 20260506015547 | 55 | 153 | 0.0 | 1.0 | 0.00 | 0.08 | 0.08 | 85 | 1006.7 |
| 20260506015114 | 55 | 153 | 0.0 | 1.0 | 0.00 | 0.08 | 0.08 | 86 | 1006.7 |
| 20260506015041 | 55 | 153 | 0.0 | 1.0 | 0.00 | 0.08 | 0.08 | 86 | 1006.7 |
| 20260506014607 | 55 | 153 | 0.0 | 0.0 | 0.00 | 0.08 | 0.08 | 85 | 1006.7 |
| 20260506014044 | 55 | 153 | 0.0 | 1.0 | 0.00 | 0.08 | 0.08 | 85 | 1006.5 |
| 20260506013541 | 55 | 0 | 0.0 | 1.0 | 0.00 | 0.08 | 0.08 | 84 | 1006.4 |
| 20260506013051 | 55 | 153 | 0.0 | 1.0 | 0.00 | 0.08 | 0.08 | 85 | 1006.3 |
| 20260506012545 | 55 | 153 | 0.0 | 1.0 | 0.00 | 0.08 | 0.08 | 85 | 1006.4 |
| 20260506012045 | 55 | 0 | 0.0 | 1.0 | 0.00 | 0.08 | 0.08 | 83 | 1006.4 |
| 20260506011616 | 56 | 153 | 0.0 | 1.0 | 0.00 | 0.08 | 0.08 | 82 | 1006.4 |
| 20260506011046 | 55 | 153 | 0.0 | 1.0 | 0.00 | 0.08 | 0.08 | 82 | 1006.3 |
| 20260506010626 | 56 | 153 | 0.0 | 1.0 | 0.00 | 0.08 | 0.08 | 82 | 1006.3 |
| 20260506010051 | 56 | 0 | 0.0 | 1.0 | 0.00 | 0.08 | 0.08 | 82 | 1006.2 |
| 20260506005544 | 56 | 160 | 0.0 | 1.0 | 0.00 | 0.08 | 0.08 | 82 | 1006.2 |
| 20260506005041 | 56 | 160 | 0.0 | 1.0 | 0.00 | 0.08 | 0.08 | 82 | 1006.2 |
| 20260506004601 | 56 | 160 | 0.0 | 1.0 | 0.00 | 0.08 | 0.08 | 81 | 1006.1 |
| 20260506004041 | 57 | 160 | 0.0 | 1.0 | 0.00 | 0.08 | 0.08 | 81 | 1006.0 |
| 20260506003542 | 57 | 166 | 0.0 | 1.0 | 0.00 | 0.08 | 0.08 | 81 | 1006.1 |
| 20260506003049 | 57 | 171 | 0.0 | 1.0 | 0.00 | 0.08 | 0.08 | 80 | 1006.1 |
| 20260506002541 | 57 | 171 | 0.0 | 4.0 | 0.00 | 0.08 | 0.08 | 79 | 1006.0 |
| 20260506002041 | 58 | 171 | 1.0 | 4.0 | 0.00 | 0.08 | 0.08 | 79 | 1006.0 |
| 20260506001548 | 58 | 109 | 0.0 | 2.0 | 0.00 | 0.08 | 0.08 | 80 | 1005.9 |
| 20260506001041 | 58 | 0 | 0.0 | 3.0 | 0.00 | 0.08 | 0.08 | 78 | 1005.9 |
| 20260506000559 | 58 | 0 | 0.0 | 4.0 | 0.00 | 0.08 | 0.08 | 77 | 1005.9 |
| 20260506000115 | 58 | 235 | 1.0 | 4.0 | 0.00 | 0.08 | 0.08 | 77 | 1006.1 |
| 20260505235547 | 58 | 193 | 0.0 | 4.0 | 0.00 | 0.08 | 0.08 | 77 | 1006.2 |
| 20260505235047 | 58 | 223 | 0.0 | 1.0 | 0.00 | 0.08 | 0.08 | 77 | 1006.1 |
| 20260505234555 | 59 | 224 | 0.0 | 3.0 | 0.00 | 0.08 | 0.08 | 77 | 1006.1 |
| 20260505234042 | 59 | 261 | 1.0 | 3.0 | 0.00 | 0.08 | 0.08 | 76 | 1006.2 |
| 20260505233544 | 58 | 0 | 0.0 | 3.0 | 0.00 | 0.08 | 0.08 | 77 | 1006.2 |
| 20260505233055 | 58 | 217 | 0.0 | 3.0 | 0.00 | 0.08 | 0.08 | 80 | 1006.2 |
| 20260505232545 | 58 | 193 | 0.0 | 3.0 | 0.00 | 0.08 | 0.08 | 78 | 1006.2 |
| 20260505232048 | 59 | 0 | 0.0 | 1.0 | 0.00 | 0.08 | 0.08 | 79 | 1006.0 |
| 20260505231609 | 59 | 0 | 0.0 | 1.0 | 0.00 | 0.08 | 0.08 | 77 | 1005.7 |
| 20260505231049 | 59 | 0 | 0.0 | 5.0 | 0.00 | 0.08 | 0.08 | 77 | 1005.8 |
| 20260505230544 | 59 | 0 | 0.0 | 5.0 | 0.00 | 0.08 | 0.08 | 76 | 1005.7 |
| 20260505225544 | 59 | 262 | 0.0 | 2.0 | 0.00 | 0.08 | 0.08 | 78 | 1005.5 |
| 20260505225046 | 59 | 0 | 0.0 | 6.0 | 0.00 | 0.08 | 0.08 | 76 | 1005.3 |
| 20260505224549 | 59 | 218 | 2.0 | 6.0 | 0.00 | 0.08 | 0.08 | 76 | 1005.7 |
| 20260505224041 | 59 | 244 | 1.0 | 6.0 | 0.00 | 0.08 | 0.08 | 76 | 1005.4 |
| 20260505223541 | 59 | 249 | 1.0 | 7.0 | 0.00 | 0.08 | 0.08 | 79 | 1005.8 |
| 20260505223054 | 59 | 193 | 2.0 | 7.0 | 0.00 | 0.08 | 0.08 | 77 | 1005.2 |
| 20260505222541 | 59 | 193 | 2.0 | 6.0 | 0.00 | 0.08 | 0.08 | 78 | 1005.5 |
| 20260505222042 | 59 | 212 | 3.0 | 6.0 | 0.00 | 0.08 | 0.08 | 80 | 1005.4 |
| 20260505221556 | 58 | 205 | 2.0 | 4.0 | 0.00 | 0.08 | 0.08 | 81 | 1005.0 |
| 20260505221040 | 58 | 0 | 1.0 | 3.0 | 0.00 | 0.08 | 0.08 | 82 | 1004.9 |
| 20260505220543 | 58 | 250 | 1.0 | 6.0 | 0.00 | 0.08 | 0.08 | 83 | 1004.8 |
| 20260505220049 | 59 | 268 | 1.0 | 7.0 | 0.00 | 0.08 | 0.08 | 82 | 1005.1 |
| 20260505215544 | 60 | 261 | 4.0 | 9.0 | 0.00 | 0.08 | 0.08 | 79 | 1005.5 |
| 20260505215046 | 61 | 250 | 2.0 | 9.0 | 0.00 | 0.08 | 0.08 | 75 | 1005.6 |
| 20260505214548 | 61 | 178 | 1.0 | 5.0 | 0.01 | 0.08 | 0.08 | 76 | 1005.9 |
| 20260505214044 | 61 | 178 | 1.0 | 5.0 | 0.01 | 0.08 | 0.08 | 76 | 1005.6 |
| 20260505213541 | 61 | 178 | 1.0 | 4.0 | 0.02 | 0.08 | 0.08 | 74 | 1005.2 |
| 20260505213053 | 62 | 178 | 1.0 | 6.0 | 0.02 | 0.08 | 0.08 | 76 | 1004.8 |
| 20260505212541 | 62 | 178 | 1.0 | 6.0 | 0.02 | 0.08 | 0.08 | 74 | 1004.6 |
| 20260505212041 | 62 | 178 | 2.0 | 5.0 | 0.02 | 0.08 | 0.08 | 70 | 1004.3 |
| 20260505211553 | 61 | 178 | 1.0 | 4.0 | 0.02 | 0.08 | 0.08 | 75 | 1004.0 |
| 20260505211041 | 60 | 178 | 2.0 | 4.0 | 0.03 | 0.08 | 0.08 | 77 | 1004.0 |
| 20260505210540 | 60 | 134 | 1.0 | 5.0 | 0.04 | 0.08 | 0.08 | 83 | 1003.8 |
| 20260505210050 | 59 | 178 | 2.0 | 7.0 | 0.06 | 0.08 | 0.08 | 83 | 1004.3 |
| 20260505205543 | 59 | 178 | 1.0 | 7.0 | 0.08 | 0.08 | 0.08 | 83 | 1004.0 |
| 20260505205045 | 59 | 163 | 2.0 | 12.0 | 0.08 | 0.08 | 0.08 | 83 | 1004.3 |
| 20260505204552 | 59 | 94 | 4.0 | 12.0 | 0.07 | 0.07 | 0.07 | 82 | 1004.8 |
| 20260505204046 | 59 | 165 | 4.0 | 12.0 | 0.07 | 0.07 | 0.07 | 83 | 1004.7 |
| 20260505203545 | 59 | 172 | 3.0 | 9.0 | 0.06 | 0.06 | 0.06 | 83 | 1004.5 |
| 20260505203100 | 59 | 178 | 3.0 | 9.0 | 0.06 | 0.06 | 0.06 | 80 | 1004.1 |
| 20260505202547 | 59 | 178 | 4.0 | 9.0 | 0.06 | 0.06 | 0.06 | 82 | 1004.3 |
| 20260505202047 | 58 | 102 | 2.0 | 8.0 | 0.06 | 0.06 | 0.06 | 87 | 1004.4 |
| 20260505201554 | 58 | 178 | 1.0 | 8.0 | 0.06 | 0.06 | 0.06 | 83 | 1004.2 |
| 20260505201047 | 59 | 70 | 3.0 | 9.0 | 0.05 | 0.05 | 0.05 | 81 | 1004.5 |
| 20260505200547 | 61 | 178 | 3.0 | 10.0 | 0.03 | 0.03 | 0.03 | 76 | 1005.6 |
| 20260505200054 | 63 | 210 | 3.0 | 11.0 | 0.02 | 0.02 | 0.02 | 69 | 1004.9 |
| 20260505195547 | 65 | 235 | 5.0 | 11.0 | 0.00 | 0.00 | 0.00 | 64 | 1004.3 |
| 20260505195048 | 67 | 259 | 4.0 | 11.0 | 0.00 | 0.00 | 0.00 | 58 | 1004.2 |
| 20260505194618 | 68 | 205 | 4.0 | 8.0 | 0.00 | 0.00 | 0.00 | 57 | 1003.6 |
| 20260505194046 | 69 | 236 | 3.0 | 6.0 | 0.00 | 0.00 | 0.00 | 49 | 1003.3 |
| 20260505193548 | 70 | 204 | 3.0 | 8.0 | 0.00 | 0.00 | 0.00 | 48 | 1002.4 |
| 20260505193103 | 70 | 198 | 3.0 | 8.0 | 0.00 | 0.00 | 0.00 | 50 | 1002.2 |
| 20260505192545 | 69 | 308 | 3.0 | 8.0 | 0.00 | 0.00 | 0.00 | 49 | 1002.2 |
| 20260505192045 | 70 | 224 | 2.0 | 8.0 | 0.00 | 0.00 | 0.00 | 53 | 1002.2 |
| 20260505191605 | 71 | 178 | 2.0 | 9.0 | 0.00 | 0.00 | 0.00 | 49 | 1002.4 |
| 20260505191048 | 72 | 113 | 4.0 | 10.0 | 0.00 | 0.00 | 0.00 | 45 | 1002.2 |
| 20260505190548 | 72 | 80 | 3.0 | 10.0 | 0.00 | 0.00 | 0.00 | 44 | 1001.8 |
| 20260505190055 | 72 | 193 | 3.0 | 9.0 | 0.00 | 0.00 | 0.00 | 42 | 1001.8 |
| 20260505185547 | 72 | 193 | 4.0 | 12.0 | 0.00 | 0.00 | 0.00 | 44 | 1001.9 |
| 20260505185047 | 73 | 271 | 3.0 | 12.0 | 0.00 | 0.00 | 0.00 | 44 | 1001.9 |
| 20260505184552 | 73 | 178 | 3.0 | 11.0 | 0.00 | 0.00 | 0.00 | 44 | 1002.1 |
| 20260505184047 | 74 | 177 | 3.0 | 11.0 | 0.00 | 0.00 | 0.00 | 40 | 1002.1 |
| 20260505183546 | 74 | 264 | 3.0 | 11.0 | 0.00 | 0.00 | 0.00 | 40 | 1002.1 |
| 20260505183054 | 74 | 241 | 3.0 | 9.0 | 0.00 | 0.00 | 0.00 | 42 | 1001.9 |
| 20260505182546 | 75 | 245 | 4.0 | 9.0 | 0.00 | 0.00 | 0.00 | 41 | 1002.1 |
| 20260505182049 | 76 | 193 | 3.0 | 11.0 | 0.00 | 0.00 | 0.00 | 39 | 1002.1 |
| 20260505181556 | 76 | 276 | 4.0 | 11.0 | 0.00 | 0.00 | 0.00 | 43 | 1002.2 |
| 20260505181046 | 75 | 254 | 4.0 | 11.0 | 0.00 | 0.00 | 0.00 | 41 | 1002.1 |
| 20260505180545 | 75 | 284 | 5.0 | 9.0 | 0.00 | 0.00 | 0.00 | 40 | 1002.4 |
| 20260505180056 | 75 | 248 | 3.0 | 9.0 | 0.00 | 0.00 | 0.00 | 41 | 1002.6 |
| 20260505175547 | 75 | 178 | 3.0 | 9.0 | 0.00 | 0.00 | 0.00 | 40 | 1002.6 |
| 20260505175047 | 75 | 178 | 3.0 | 9.0 | 0.00 | 0.00 | 0.00 | 40 | 1002.6 |
| 20260505174553 | 76 | 236 | 4.0 | 11.0 | 0.00 | 0.00 | 0.00 | 41 | 1002.8 |
| 20260505174047 | 76 | 158 | 4.0 | 11.0 | 0.00 | 0.00 | 0.00 | 40 | 1002.7 |
| 20260505173547 | 77 | 219 | 4.0 | 8.0 | 0.00 | 0.00 | 0.00 | 41 | 1002.7 |
| 20260505173111 | 77 | 178 | 4.0 | 13.0 | 0.00 | 0.00 | 0.00 | 41 | 1002.8 |
| 20260505172547 | 77 | 178 | 3.0 | 13.0 | 0.00 | 0.00 | 0.00 | 40 | 1002.8 |
| 20260505172047 | 77 | 239 | 2.0 | 9.0 | 0.00 | 0.00 | 0.00 | 42 | 1003.0 |
| 20260505171620 | 77 | 300 | 3.0 | 9.0 | 0.00 | 0.00 | 0.00 | 40 | 1002.9 |
| 20260505171047 | 77 | 145 | 4.0 | 10.0 | 0.00 | 0.00 | 0.00 | 40 | 1002.6 |
| 20260505170546 | 77 | 178 | 4.0 | 10.0 | 0.00 | 0.00 | 0.00 | 38 | 1003.1 |
| 20260505170059 | 77 | 178 | 3.0 | 8.0 | 0.00 | 0.00 | 0.00 | 38 | 1002.6 |
| 20260505165546 | 76 | 224 | 4.0 | 8.0 | 0.00 | 0.00 | 0.00 | 40 | 1002.8 |
| 20260505165046 | 76 | 203 | 4.0 | 8.0 | 0.00 | 0.00 | 0.00 | 39 | 1003.2 |
| 20260505164601 | 76 | 178 | 3.0 | 6.0 | 0.00 | 0.00 | 0.00 | 40 | 1003.2 |
| 20260505164046 | 76 | 235 | 3.0 | 8.0 | 0.00 | 0.00 | 0.00 | 40 | 1003.4 |
| 20260505163546 | 75 | 265 | 4.0 | 9.0 | 0.00 | 0.00 | 0.00 | 44 | 1003.4 |
| 20260505163051 | 75 | 347 | 2.0 | 9.0 | 0.00 | 0.00 | 0.00 | 44 | 1003.6 |
| 20260505162545 | 74 | 178 | 4.0 | 9.0 | 0.00 | 0.00 | 0.00 | 46 | 1003.7 |
| 20260505162047 | 75 | 178 | 3.0 | 8.0 | 0.00 | 0.00 | 0.00 | 45 | 1003.7 |
| 20260505161556 | 74 | 239 | 3.0 | 8.0 | 0.00 | 0.00 | 0.00 | 45 | 1003.6 |
| 20260505161047 | 74 | 222 | 3.0 | 9.0 | 0.00 | 0.00 | 0.00 | 44 | 1003.9 |
| 20260505160550 | 73 | 274 | 3.0 | 9.0 | 0.00 | 0.00 | 0.00 | 46 | 1003.8 |
| 20260505153107 | 72 | 178 | 2.0 | 7.0 | 0.00 | 0.00 | 0.00 | 50 | 1004.4 |
| 20260505152547 | 71 | 179 | 3.0 | 8.0 | 0.00 | 0.00 | 0.00 | 55 | 1004.5 |
| 20260505152044 | 70 | 179 | 4.0 | 8.0 | 0.00 | 0.00 | 0.00 | 52 | 1004.7 |
| 20260505151602 | 70 | 255 | 2.0 | 8.0 | 0.00 | 0.00 | 0.00 | 54 | 1004.7 |
| 20260505151046 | 70 | 262 | 3.0 | 8.0 | 0.00 | 0.00 | 0.00 | 51 | 1004.6 |
| 20260505150544 | 69 | 252 | 3.0 | 8.0 | 0.00 | 0.00 | 0.00 | 53 | 1004.7 |
| 20260505150126 | 69 | 212 | 3.0 | 9.0 | 0.00 | 0.00 | 0.00 | 55 | 1004.7 |
| 20260505140544 | 66 | 178 | 3.0 | 8.0 | 0.00 | 0.00 | 0.00 | 57 | 1005.4 |
| 20260505124558 | 54 | 68 | 0.0 | 2.0 | 0.00 | 0.00 | 0.00 | 72 | 1004.9 |
| 20260505124049 | 54 | 103 | 1.0 | 2.0 | 0.00 | 0.00 | 0.00 | 73 | 1004.9 |
| 20260505123545 | 54 | 79 | 1.0 | 3.0 | 0.00 | 0.00 | 0.00 | 72 | 1005.0 |
| 20260505123100 | 54 | 34 | 1.0 | 3.0 | 0.00 | 0.00 | 0.00 | 72 | 1005.0 |
| 20260505122546 | 54 | 38 | 0.0 | 3.0 | 0.00 | 0.00 | 0.00 | 72 | 1004.9 |
| 20260505122048 | 54 | 48 | 0.0 | 3.0 | 0.00 | 0.00 | 0.00 | 72 | 1005.0 |
| 20260505121619 | 54 | 6 | 0.0 | 1.0 | 0.00 | 0.00 | 0.00 | 73 | 1004.9 |
| 20260505121046 | 53 | 80 | 0.0 | 2.0 | 0.00 | 0.00 | 0.00 | 72 | 1005.0 |
| 20260505120543 | 53 | 0 | 0.0 | 2.0 | 0.00 | 0.00 | 0.00 | 73 | 1005.1 |
| 20260505120050 | 53 | 65 | 1.0 | 1.0 | 0.00 | 0.00 | 0.00 | 70 | 1005.1 |
| 20260505115545 | 53 | 6 | 0.0 | 2.0 | 0.00 | 0.00 | 0.00 | 71 | 1005.2 |
| 20260505115044 | 54 | 0 | 0.0 | 2.0 | 0.00 | 0.00 | 0.00 | 71 | 1005.6 |
| 20260505114551 | 54 | 0 | 0.0 | 3.0 | 0.00 | 0.00 | 0.00 | 72 | 1005.4 |
| 20260505114044 | 54 | 29 | 1.0 | 3.0 | 0.00 | 0.00 | 0.00 | 71 | 1005.5 |
| 20260505113544 | 53 | 2 | 1.0 | 3.0 | 0.00 | 0.00 | 0.00 | 71 | 1005.4 |
| 20260505113057 | 54 | 335 | 1.0 | 4.0 | 0.00 | 0.00 | 0.00 | 71 | 1005.3 |
| 20260505112546 | 54 | 266 | 1.0 | 4.0 | 0.00 | 0.00 | 0.00 | 70 | 1005.3 |
| 20260505112046 | 53 | 304 | 1.0 | 2.0 | 0.00 | 0.00 | 0.00 | 70 | 1005.3 |
| 20260505111556 | 52 | 109 | 0.0 | 2.0 | 0.00 | 0.00 | 0.00 | 73 | 1005.4 |
| 20260505111046 | 52 | 81 | 0.0 | 2.0 | 0.00 | 0.00 | 0.00 | 73 | 1005.5 |
| 20260505110543 | 51 | 81 | 0.0 | 2.0 | 0.00 | 0.00 | 0.00 | 73 | 1005.5 |
| 20260505102046 | 50 | 84 | 0.0 | 3.0 | 0.00 | 0.00 | 0.00 | 74 | 1005.1 |
| 20260505101551 | 50 | 56 | 0.0 | 3.0 | 0.00 | 0.00 | 0.00 | 73 | 1004.8 |
| 20260505101046 | 50 | 23 | 0.0 | 5.0 | 0.00 | 0.00 | 0.00 | 73 | 1005.0 |
| 20260505100544 | 50 | 90 | 0.0 | 5.0 | 0.00 | 0.00 | 0.00 | 73 | 1005.0 |
| 20260505100128 | 49 | 79 | 1.0 | 5.0 | 0.00 | 0.00 | 0.00 | 73 | 1004.9 |
| 20260505095546 | 49 | 330 | 1.0 | 3.0 | 0.00 | 0.00 | 0.00 | 74 | 1004.9 |
| 20260505095048 | 49 | 72 | 1.0 | 3.0 | 0.00 | 0.00 | 0.00 | 74 | 1005.1 |
| 20260505094558 | 49 | 338 | 1.0 | 3.0 | 0.00 | 0.00 | 0.00 | 74 | 1005.0 |
| 20260505094045 | 49 | 351 | 1.0 | 3.0 | 0.00 | 0.00 | 0.00 | 74 | 1005.0 |
| 20260505093544 | 49 | 86 | 0.0 | 2.0 | 0.00 | 0.00 | 0.00 | 73 | 1005.0 |
| 20260505093101 | 49 | 46 | 1.0 | 2.0 | 0.00 | 0.00 | 0.00 | 72 | 1005.1 |
| 20260505092550 | 49 | 101 | 0.0 | 3.0 | 0.00 | 0.00 | 0.00 | 73 | 1005.0 |
| 20260505092046 | 49 | 67 | 1.0 | 3.0 | 0.00 | 0.00 | 0.00 | 72 | 1005.1 |
| 20260505091616 | 50 | 28 | 1.0 | 3.0 | 0.00 | 0.00 | 0.00 | 71 | 1004.9 |
| 20260505091045 | 50 | 352 | 1.0 | 4.0 | 0.00 | 0.00 | 0.00 | 71 | 1005.1 |
| 20260505090546 | 50 | 79 | 1.0 | 4.0 | 0.00 | 0.00 | 0.00 | 70 | 1005.1 |
| 20260505090101 | 50 | 2 | 1.0 | 2.0 | 0.00 | 0.00 | 0.00 | 70 | 1005.2 |
| 20260505085546 | 51 | 79 | 1.0 | 2.0 | 0.00 | 0.00 | 0.00 | 69 | 1005.4 |
| 20260505085044 | 51 | 0 | 0.0 | 2.0 | 0.00 | 0.00 | 0.00 | 69 | 1005.4 |
| 20260505084553 | 52 | 64 | 1.0 | 2.0 | 0.00 | 0.00 | 0.00 | 67 | 1005.4 |
| 20260505084047 | 53 | 103 | 0.0 | 4.0 | 0.00 | 0.00 | 0.00 | 67 | 1005.4 |
| 20260505083548 | 53 | 139 | 0.0 | 5.0 | 0.00 | 0.00 | 0.00 | 65 | 1005.4 |
| 20260505083056 | 52 | 176 | 0.0 | 5.0 | 0.00 | 0.00 | 0.00 | 67 | 1005.5 |
| 20260505082545 | 52 | 106 | 0.0 | 7.0 | 0.00 | 0.00 | 0.00 | 68 | 1005.4 |
| 20260505082047 | 52 | 126 | 1.0 | 7.0 | 0.00 | 0.00 | 0.00 | 68 | 1005.4 |
| 20260505081554 | 51 | 193 | 1.0 | 4.0 | 0.00 | 0.00 | 0.00 | 68 | 1005.3 |
| 20260505081044 | 50 | 119 | 1.0 | 3.0 | 0.00 | 0.00 | 0.00 | 71 | 1005.3 |
| 20260505080546 | 50 | 72 | 0.0 | 3.0 | 0.00 | 0.00 | 0.00 | 71 | 1005.4 |
| 20260505080054 | 50 | 98 | 1.0 | 2.0 | 0.00 | 0.00 | 0.00 | 69 | 1005.4 |
| 20260505075544 | 50 | 56 | 1.0 | 2.0 | 0.00 | 0.00 | 0.00 | 70 | 1005.4 |
| 20260505075046 | 50 | 73 | 0.0 | 5.0 | 0.00 | 0.00 | 0.00 | 69 | 1005.2 |
| 20260505074556 | 50 | 83 | 0.0 | 5.0 | 0.00 | 0.00 | 0.00 | 70 | 1005.3 |
| 20260505074048 | 49 | 98 | 1.0 | 2.0 | 0.00 | 0.00 | 0.00 | 70 | 1005.4 |
| 20260505073545 | 49 | 47 | 1.0 | 4.0 | 0.00 | 0.00 | 0.00 | 69 | 1005.3 |
| 20260505073102 | 50 | 29 | 1.0 | 4.0 | 0.00 | 0.00 | 0.00 | 68 | 1005.4 |
| 20260505072547 | 50 | 69 | 1.0 | 4.0 | 0.00 | 0.00 | 0.00 | 68 | 1005.4 |
| 20260505072049 | 50 | 193 | 0.0 | 3.0 | 0.00 | 0.00 | 0.00 | 68 | 1005.5 |
| 20260505071551 | 50 | 193 | 0.0 | 4.0 | 0.00 | 0.00 | 0.00 | 68 | 1005.5 |
| 20260505071045 | 50 | 345 | 0.0 | 4.0 | 0.00 | 0.00 | 0.00 | 69 | 1005.5 |
| 20260505070545 | 50 | 117 | 1.0 | 4.0 | 0.00 | 0.00 | 0.00 | 69 | 1005.4 |
| 20260505070057 | 49 | 103 | 1.0 | 2.0 | 0.00 | 0.00 | 0.00 | 68 | 1005.6 |
| 20260505065546 | 49 | 0 | 0.0 | 2.0 | 0.00 | 0.00 | 0.00 | 69 | 1005.5 |
| 20260505065041 | 49 | 75 | 0.0 | 4.0 | 0.00 | 0.00 | 0.00 | 68 | 1005.3 |
| 20260505064609 | 50 | 345 | 0.0 | 4.0 | 0.00 | 0.00 | 0.00 | 68 | 1005.5 |
| 20260505064046 | 50 | 41 | 0.0 | 4.0 | 0.00 | 0.00 | 0.00 | 69 | 1005.3 |
| 20260505063546 | 50 | 47 | 2.0 | 4.0 | 0.00 | 0.00 | 0.00 | 67 | 1005.3 |
| 20260505063052 | 49 | 98 | 1.0 | 3.0 | 0.00 | 0.00 | 0.00 | 69 | 1005.5 |
| 20260505062546 | 49 | 136 | 1.0 | 3.0 | 0.00 | 0.00 | 0.00 | 68 | 1005.6 |